Total_Precipitation_Accumulation
0.00 0.00 0.00 0.00 0.00 0.00 0.02 0.06 0.10 0.06 0.02 0.01 0.02 0.03 0.04 0.04 0.03 0.05 0.04 0.04 0.05 0.06 0.07 0.08 0.08 0.09 0.10 0.11 0.15 0.21 0.28 0.32 0.36 0.39 0.43 0.44 0.43 0.41
0.00 0.00 0.00 0.00 0.00 0.00 0.01 0.02 0.06 0.08 0.04 0.01 0.01 0.03 0.06 0.06 0.05 0.06 0.07 0.09 0.11 0.11 0.11 0.11 0.12 0.15 0.16 0.16 0.15 0.18 0.24 0.29 0.31 0.31 0.32 0.34 0.35 0.36
0.00 0.00 0.00 0.00 0.00 0.00 0.00 0.01 0.01 0.04 0.05 0.01 0.00 0.01 0.04 0.05 0.05 0.06 0.06 0.06 0.06 0.08 0.10 0.11 0.12 0.15 0.18 0.19 0.19 0.19 0.22 0.27 0.30 0.31 0.33 0.35 0.35 0.34
0.00 0.00 0.00 0.00 0.00 0.00 0.00 0.00 0.00 0.02 0.04 0.03 0.00 0.00 0.01 0.03 0.04 0.04 0.05 0.06 0.05 0.06 0.09 0.11 0.13 0.16 0.19 0.20 0.19 0.20 0.21 0.23 0.25 0.27 0.30 0.32 0.34 0.37
0.00 0.00 0.00 0.00 0.00 0.00 0.00 0.00 0.01 0.01 0.02 0.04 0.02 0.01 0.01 0.02 0.03 0.03 0.04 0.05 0.05 0.07 0.08 0.10 0.14 0.17 0.18 0.19 0.18 0.18 0.18 0.19 0.22 0.25 0.29 0.34 0.38 0.40
0.00 0.00 0.00 0.00 0.00 0.00 0.00 0.01 0.01 0.02 0.02 0.04 0.04 0.03 0.02 0.02 0.04 0.04 0.04 0.04 0.05 0.05 0.05 0.06 0.07 0.09 0.10 0.12 0.16 0.17 0.19 0.22 0.27 0.32 0.37 0.40 0.42 0.43
0.00 0.00 0.00 0.00 0.00 0.00 0.01 0.01 0.02 0.03 0.04 0.05 0.04 0.04 0.03 0.04 0.05 0.06 0.07 0.06 0.04 0.03 0.03 0.02 0.03 0.04 0.05 0.09 0.14 0.19 0.23 0.29 0.35 0.44 0.52 0.58 0.59 0.57
0.00 0.00 0.00 0.00 0.00 0.01 0.01 0.02 0.03 0.05 0.07 0.06 0.04 0.04 0.03 0.03 0.05 0.08 0.10 0.11 0.08 0.03 0.04 0.03 0.02 0.04 0.07 0.11 0.18 0.21 0.25 0.30 0.36 0.44 0.51 0.54 0.56 0.61
0.00 0.00 0.00 0.00 0.01 0.01 0.01 0.02 0.04 0.04 0.04 0.04 0.05 0.05 0.06 0.08 0.12 0.15 0.14 0.11 0.06 0.03 0.03 0.04 0.03 0.04 0.07 0.13 0.22 0.25 0.29 0.36 0.41 0.45 0.48 0.50 0.50 0.52
0.00 0.00 0.00 0.01 0.01 0.02 0.04 0.05 0.03 0.01 0.01 0.02 0.05 0.09 0.10 0.10 0.10 0.11 0.10 0.08 0.05 0.03 0.04 0.07 0.06 0.07 0.08 0.12 0.22 0.22 0.23 0.27 0.32 0.36 0.36 0.36 0.36 0.39
0.00 0.00 0.02 0.02 0.02 0.06 0.09 0.06 0.02 0.01 0.01 0.04 0.07 0.07 0.06 0.05 0.06 0.13 0.19 0.20 0.13 0.05 0.04 0.07 0.06 0.09 0.13 0.16 0.21 0.22 0.18 0.21 0.27 0.30 0.28 0.25 0.25 0.28
0.01 0.01 0.01 0.02 0.05 0.10 0.08 0.05 0.04 0.03 0.03 0.03 0.02 0.01 0.01 0.02 0.06 0.15 0.30 0.36 0.24 0.13 0.08 0.11 0.12 0.15 0.21 0.19 0.19 0.20 0.20 0.24 0.26 0.26 0.24 0.23 0.22 0.19
0.04 0.02 0.01 0.05 0.08 0.07 0.04 0.04 0.05 0.06 0.04 0.02 0.01 0.01 0.01 0.02 0.03 0.06 0.16 0.34 0.36 0.22 0.11 0.17 0.18 0.18 0.21 0.22 0.23 0.24 0.25 0.28 0.30 0.30 0.28 0.25 0.20 0.14
0.04 0.02 0.03 0.07 0.05 0.02 0.02 0.02 0.04 0.04 0.02 0.02 0.02 0.02 0.02 0.02 0.02 0.04 0.06 0.14 0.25 0.25 0.15 0.19 0.21 0.18 0.23 0.27 0.30 0.32 0.30 0.32 0.35 0.34 0.30 0.28 0.24 0.19
0.04 0.06 0.06 0.03 0.01 0.01 0.01 0.01 0.02 0.02 0.04 0.07 0.06 0.03 0.02 0.03 0.03 0.04 0.06 0.11 0.17 0.21 0.21 0.21 0.24 0.26 0.31 0.32 0.30 0.32 0.35 0.38 0.39 0.37 0.28 0.21 0.17 0.15
0.08 0.07 0.02 0.00 0.00 0.00 0.00 0.00 0.01 0.01 0.05 0.11 0.09 0.05 0.02 0.03 0.05 0.09 0.15 0.19 0.22 0.23 0.25 0.28 0.29 0.30 0.30 0.30 0.29 0.29 0.33 0.39 0.39 0.35 0.26 0.18 0.13 0.09
0.07 0.02 0.00 0.00 0.00 0.00 0.00 0.00 0.00 0.01 0.02 0.05 0.08 0.07 0.05 0.05 0.08 0.15 0.24 0.29 0.30 0.29 0.30 0.28 0.24 0.22 0.24 0.24 0.25 0.26 0.27 0.32 0.32 0.28 0.22 0.18 0.16 0.10
0.02 0.00 0.01 0.01 0.01 0.01 0.01 0.01 0.01 0.01 0.04 0.08 0.10 0.10 0.11 0.12 0.14 0.19 0.29 0.34 0.34 0.34 0.32 0.28 0.22 0.19 0.18 0.18 0.21 0.23 0.23 0.26 0.27 0.22 0.14 0.11 0.13 0.11
0.01 0.02 0.02 0.02 0.01 0.01 0.02 0.02 0.02 0.02 0.06 0.13 0.16 0.16 0.16 0.17 0.21 0.26 0.32 0.35 0.34 0.31 0.23 0.15 0.11 0.11 0.13 0.12 0.13 0.15 0.15 0.17 0.15 0.13 0.10 0.06 0.06 0.07
0.02 0.03 0.02 0.01 0.01 0.02 0.03 0.03 0.04 0.06 0.10 0.16 0.19 0.20 0.22 0.24 0.26 0.30 0.33 0.32 0.26 0.16 0.08 0.03 0.03 0.03 0.04 0.05 0.05 0.06 0.07 0.07 0.05 0.04 0.04 0.03 0.03 0.02
0.03 0.02 0.01 0.01 0.02 0.02 0.03 0.05 0.07 0.12 0.16 0.22 0.24 0.26 0.28 0.29 0.29 0.29 0.27 0.20 0.10 0.04 0.02 0.01 0.01 0.01 0.01 0.01 0.01 0.01 0.01 0.01 0.01 0.01 0.01 0.02 0.02 0.02
0.02 0.02 0.01 0.01 0.02 0.03 0.05 0.07 0.11 0.14 0.19 0.23 0.27 0.30 0.31 0.29 0.24 0.18 0.11 0.05 0.02 0.01 0.01 0.00 0.00 0.00 0.00 0.00 0.00 0.00 0.00 0.00 0.00 0.00 0.01 0.01 0.01 0.01
0.02 0.02 0.02 0.02 0.02 0.04 0.07 0.09 0.14 0.18 0.23 0.27 0.29 0.27 0.23 0.15 0.08 0.04 0.02 0.01 0.01 0.01 0.01 0.01 0.01 0.01 0.01 0.01 0.01 0.01 0.01 0.01 0.01 0.02 0.03 0.02 0.02 0.02